Flag for Kazakhstan Weather past 2 weeks in Shymkent, Kazakhstan

Now
93 °F

Sunny.


Feels Like: 89 °F
Forecast: 59 / 86 °F
Wind: 1 mph from North

Location: Shymkent Airport

Current Time: Sep 2, 2014 at 4:09:23 PM

Latest Report: Sep 2, 2014 at 3:30 PM


Visibility: 10 mi

Pressure: 29.83 "Hg

Humidity: 9%

Dew point: 27 °F

Location of ShymkentLocation

Historic Weather in Shymkent — Graph

°F

Shymkent temperature yesterday

Maximum temperature yesterday: 95 °F (at 2:30 PM)
Minimum temperature yesterday: 63 °F (at 5:00 AM)
Average temperature yesterday: 79 °F

Past Weeks' High & Low Weather Summary

 TemperatureHumidityPressure
High104 °F (Aug 23, 4:00 PM)46% (Aug 26, 4:00 AM)29.98 "Hg (Aug 26, 4:00 AM)
Low59 °F (Sep 2, 6:00 AM)5% (Aug 24, 2:30 PM)29.65 "Hg (Aug 22, 1:00 AM)
Average84 °F17%29.81 "Hg
* Reported Aug 18 3:00 PM — Sep 2 3:00 PM, Shymkent, Weather by CustomWeather, © 2014

Note: Actual official high and low records may vary slightly from our data, if they occured in-between our weather recording intervals... More about our weather records

Advertising

Shymkent weather history for previous 24 hours

 ConditionsComfort  
Time TempWeatherWind HumidityBarometerVisibility
3:00 PM
Sep 2
93 °FSunny.1 mph10%29.83 "Hg10 mi
2:30 PM90 °FSunny.1 mph13%29.86 "Hg10 mi
2:00 PM90 °FSunny.1 mph13%29.86 "Hg10 mi
1:30 PM90 °FSunny.No wind13%29.86 "Hg10 mi
1:00 PM88 °FSunny.3 mph13%29.86 "Hg10 mi
12:30 PM86 °FSunny.3 mph13%29.86 "Hg10 mi
12:00 PM86 °FSunny.1 mph12%29.86 "Hg10 mi
11:30 AM82 °FSunny.1 mph16%29.89 "Hg10 mi
11:00 AM81 °FSunny.1 mph20%29.89 "Hg10 mi
10:30 AM79 °FSunny.1 mph18%29.89 "Hg10 mi
10:00 AM75 °FSunny.No wind22%29.86 "Hg10 mi
9:30 AM72 °FSunny.1 mph27%29.86 "Hg10 mi
9:00 AM70 °FSunny.1 mph29%29.86 "Hg10 mi
8:30 AM68 °FSunny.No wind28%29.86 "Hg10 mi
8:00 AM61 °FSunny.No wind42%29.86 "Hg10 mi
7:30 AM61 °FSunny.1 mph45%29.86 "Hg10 mi
7:00 AM61 °FSunny.No wind39%29.83 "Hg10 mi
6:30 AM59 °FSunny.3 mph42%29.83 "Hg10 mi
6:00 AM59 °FSunny.3 mph45%29.83 "Hg10 mi
5:30 AM61 °FClear.1 mph42%29.83 "Hg10 mi
5:00 AM63 °FClear.1 mph37%29.80 "Hg10 mi
4:30 AM63 °FClear.6 mph37%29.80 "Hg10 mi
4:00 AM63 °FClear.8 mph39%29.80 "Hg10 mi
3:30 AM63 °FClear.6 mph39%29.80 "Hg10 mi
2:30 AM64 °FClear.3 mph34%29.80 "Hg10 mi
2:00 AM63 °FClear.3 mph37%29.80 "Hg10 mi
1:30 AM64 °FClear.No wind34%29.80 "Hg10 mi
1:00 AM66 °FPassing clouds.3 mph32%29.80 "HgN/A
12:30 AM66 °FClear.6 mph30%29.83 "Hg10 mi
12:00 AM70 °FClear.6 mph23%29.83 "Hg10 mi
11:30 PM
Sep 1
68 °FClear.3 mph26%29.83 "Hg10 mi
11:00 PM72 °FClear.1 mph20%29.83 "Hg10 mi
10:30 PM72 °FClear.1 mph23%29.83 "Hg10 mi
10:00 PM75 °FClear.1 mph19%29.83 "Hg10 mi
9:30 PM75 °FClear.1 mph19%29.83 "Hg10 mi
9:00 PM79 °FClear.1 mph17%29.83 "Hg10 mi
8:30 PM81 °FClear.3 mph15%29.80 "Hg10 mi
8:00 PM84 °FPassing clouds.6 mph14%29.80 "HgN/A
7:30 PM86 °FPassing clouds.6 mph15%29.80 "HgN/A
7:00 PM90 °FClear.3 mph12%29.80 "Hg10 mi
6:30 PM90 °FPassing clouds.3 mph11%29.80 "HgN/A
6:00 PM91 °FPassing clouds.6 mph10%29.80 "HgN/A
5:30 PM93 °FPassing clouds.8 mph10%29.80 "HgN/A
5:00 PM93 °FPassing clouds.8 mph8%29.80 "HgN/A
4:30 PM95 °FPassing clouds.3 mph7%29.80 "HgN/A
4:00 PM93 °FPassing clouds.8 mph7%29.77 "HgN/A
Weather by CustomWeather, © 2014

See weather overviewHow to use our weather pages